Time,TemperatureF,DewpointF,PressureIn,WindDirection,WindDirectionDegrees,WindSpeedMPH,WindSpeedGustMPH,Humidity,HourlyPrecipIn,Conditions,Clouds,dailyrainin,SolarRadiationWatts/m^2,SoftwareType,DateUTC
2013-03-18 00:12:00,31.0,22.0,-100.00,SW,234,5.0,8.0,68,0.00,,,0.00,0.000000,,2013-03-18 07:12:00,
2013-03-18 00:22:00,31.0,22.0,-100.00,SW,234,5.0,8.0,68,0.00,,,0.00,0.000000,,2013-03-18 07:22:00,
2013-03-18 00:32:00,31.0,22.0,-100.00,SW,234,5.0,8.0,68,0.00,,,0.00,0.000000,,2013-03-18 07:32:00,
2013-03-18 00:42:00,31.0,22.0,-100.00,SW,234,5.0,8.0,68,0.00,,,0.00,0.000000,,2013-03-18 07:42:00,
2013-03-18 01:12:00,31.0,20.0,-100.00,SW,223,3.0,7.0,64,0.00,,,0.00,0.000000,,2013-03-18 08:12:00,
2013-03-18 01:22:00,31.0,20.0,-100.00,SW,223,3.0,7.0,64,0.00,,,0.00,0.000000,,2013-03-18 08:22:00,
2013-03-18 01:32:00,31.0,20.0,-100.00,SW,223,3.0,7.0,64,0.00,,,0.00,0.000000,,2013-03-18 08:32:00,
2013-03-18 01:42:00,31.0,20.0,-100.00,SW,223,3.0,7.0,64,0.00,,,0.00,0.000000,,2013-03-18 08:42:00,
2013-03-18 02:12:00,31.0,21.0,-100.00,WSW,250,7.0,10.0,66,0.00,,,0.00,0.000000,,2013-03-18 09:12:00,
2013-03-18 02:22:00,31.0,21.0,-100.00,WSW,250,7.0,10.0,66,0.00,,,0.00,0.000000,,2013-03-18 09:22:00,
2013-03-18 02:33:00,31.0,21.0,-100.00,WSW,250,7.0,10.0,66,0.00,,,0.00,0.000000,,2013-03-18 09:33:00,
2013-03-18 02:42:00,31.0,21.0,-100.00,WSW,250,7.0,10.0,66,0.00,,,0.00,0.000000,,2013-03-18 09:42:00,
2013-03-18 03:12:00,32.0,21.0,-100.00,West,264,16.0,23.0,63,0.00,,,0.00,0.000000,,2013-03-18 10:12:00,
2013-03-18 03:23:00,32.0,21.0,-100.00,West,264,16.0,23.0,63,0.00,,,0.00,0.000000,,2013-03-18 10:23:00,
2013-03-18 03:33:00,32.0,21.0,-100.00,West,264,16.0,23.0,63,0.00,,,0.00,0.000000,,2013-03-18 10:33:00,
2013-03-18 03:42:00,32.0,21.0,-100.00,West,264,16.0,23.0,63,0.00,,,0.00,0.000000,,2013-03-18 10:42:00,
2013-03-18 04:12:00,29.0,21.0,-100.00,WSW,251,8.0,25.0,71,0.00,,,0.00,0.000000,,2013-03-18 11:12:00,
2013-03-18 04:22:00,29.0,21.0,-100.00,WSW,251,8.0,25.0,71,0.00,,,0.00,0.000000,,2013-03-18 11:22:00,
2013-03-18 04:32:00,29.0,21.0,-100.00,WSW,251,8.0,25.0,71,0.00,,,0.00,0.000000,,2013-03-18 11:32:00,
2013-03-18 04:42:00,29.0,21.0,-100.00,WSW,251,8.0,25.0,71,0.00,,,0.00,0.000000,,2013-03-18 11:42:00,
2013-03-18 05:12:00,29.0,20.0,-100.00,West,262,11.0,15.0,69,0.00,,,0.00,0.000000,,2013-03-18 12:12:00,
2013-03-18 05:22:00,29.0,20.0,-100.00,West,262,11.0,15.0,69,0.00,,,0.00,0.000000,,2013-03-18 12:22:00,
2013-03-18 05:32:00,29.0,20.0,-100.00,West,262,11.0,15.0,69,0.00,,,0.00,0.000000,,2013-03-18 12:32:00,
2013-03-18 05:42:00,29.0,20.0,-100.00,West,262,11.0,15.0,69,0.00,,,0.00,0.000000,,2013-03-18 12:42:00,
2013-03-18 06:12:00,28.0,19.0,-100.00,WNW,285,6.0,13.0,69,0.00,,,0.00,0.000000,,2013-03-18 13:12:00,
2013-03-18 06:22:00,28.0,19.0,-100.00,WNW,285,6.0,13.0,69,0.00,,,0.00,0.000000,,2013-03-18 13:22:00,
2013-03-18 06:32:00,28.0,19.0,-100.00,WNW,285,6.0,13.0,69,0.00,,,0.00,0.000000,,2013-03-18 13:32:00,
2013-03-18 06:42:00,28.0,19.0,-100.00,WNW,285,6.0,13.0,69,0.00,,,0.00,0.000000,,2013-03-18 13:42:00,
2013-03-18 07:12:00,29.0,21.0,-100.00,SW,231,13.0,17.0,71,0.00,,,0.00,0.000000,,2013-03-18 14:12:00,
2013-03-18 07:22:00,29.0,21.0,-100.00,SW,231,13.0,17.0,71,0.00,,,0.00,0.000000,,2013-03-18 14:22:00,
2013-03-18 07:32:00,29.0,21.0,-100.00,SW,231,13.0,17.0,71,0.00,,,0.00,0.000000,,2013-03-18 14:32:00,
2013-03-18 07:42:00,29.0,21.0,-100.00,SW,231,13.0,17.0,71,0.00,,,0.00,0.000000,,2013-03-18 14:42:00,
2013-03-18 08:12:00,33.0,22.0,-100.00,SW,230,9.0,18.0,63,0.00,,,0.00,0.000000,,2013-03-18 15:12:00,
2013-03-18 08:22:00,33.0,22.0,-100.00,SW,230,9.0,18.0,63,0.00,,,0.00,0.000000,,2013-03-18 15:22:00,
2013-03-18 08:33:00,33.0,22.0,-100.00,SW,230,9.0,18.0,63,0.00,,,0.00,0.000000,,2013-03-18 15:33:00,
2013-03-18 08:42:00,33.0,22.0,-100.00,SW,230,9.0,18.0,63,0.00,,,0.00,0.000000,,2013-03-18 15:42:00,
2013-03-18 09:12:00,36.0,23.0,-100.00,WSW,243,9.0,14.0,58,0.00,,,0.00,100.000000,,2013-03-18 16:12:00,
2013-03-18 09:22:00,36.0,23.0,-100.00,WSW,243,9.0,14.0,58,0.00,,,0.00,100.000000,,2013-03-18 16:22:00,
2013-03-18 09:32:00,36.0,23.0,-100.00,WSW,243,9.0,14.0,58,0.00,,,0.00,100.000000,,2013-03-18 16:32:00,
2013-03-18 09:42:00,36.0,23.0,-100.00,WSW,243,9.0,14.0,58,0.00,,,0.00,100.000000,,2013-03-18 16:42:00,
2013-03-18 10:12:00,38.0,22.0,-100.00,NW,315,9.0,17.0,52,0.00,,,0.00,232.000000,,2013-03-18 17:12:00,
2013-03-18 10:22:00,38.0,22.0,-100.00,NW,315,9.0,17.0,52,0.00,,,0.00,232.000000,,2013-03-18 17:22:00,
2013-03-18 10:32:00,38.0,22.0,-100.00,NW,315,9.0,17.0,52,0.00,,,0.00,232.000000,,2013-03-18 17:32:00,
2013-03-18 10:42:00,38.0,22.0,-100.00,NW,315,9.0,17.0,52,0.00,,,0.00,232.000000,,2013-03-18 17:42:00,
2013-03-18 11:12:00,41.0,27.0,-100.00,WNW,291,13.0,22.0,57,0.00,,,0.00,149.000000,,2013-03-18 18:12:00,
2013-03-18 11:22:00,41.0,27.0,-100.00,WNW,291,13.0,22.0,57,0.00,,,0.00,149.000000,,2013-03-18 18:22:00,
2013-03-18 11:32:00,41.0,27.0,-100.00,WNW,291,13.0,22.0,57,0.00,,,0.00,149.000000,,2013-03-18 18:32:00,
2013-03-18 11:42:00,41.0,27.0,-100.00,WNW,291,13.0,22.0,57,0.00,,,0.00,149.000000,,2013-03-18 18:42:00,
2013-03-18 12:12:00,42.0,23.0,-100.00,WNW,292,26.0,38.0,47,0.00,,,0.00,582.000000,,2013-03-18 19:12:00,
2013-03-18 12:22:00,42.0,23.0,-100.00,WNW,292,26.0,38.0,47,0.00,,,0.00,582.000000,,2013-03-18 19:22:00,
2013-03-18 12:32:00,42.0,23.0,-100.00,WNW,292,26.0,38.0,47,0.00,,,0.00,582.000000,,2013-03-18 19:32:00,
2013-03-18 12:42:00,42.0,23.0,-100.00,WNW,292,26.0,38.0,47,0.00,,,0.00,582.000000,,2013-03-18 19:42:00,
2013-03-18 13:12:00,42.0,20.0,-100.00,WNW,298,31.0,39.0,41,0.00,,,0.00,661.000000,,2013-03-18 20:12:00,
2013-03-18 13:22:00,42.0,20.0,-100.00,WNW,298,31.0,39.0,41,0.00,,,0.00,661.000000,,2013-03-18 20:22:00,
2013-03-18 13:42:00,42.0,20.0,-100.00,WNW,298,31.0,39.0,41,0.00,,,0.00,661.000000,,2013-03-18 20:42:00,
2013-03-18 14:11:00,41.0,17.0,-100.00,NW,307,26.0,43.0,38,0.00,,,0.00,691.000000,,2013-03-18 21:11:00,
2013-03-18 14:22:00,41.0,17.0,-100.00,NW,307,26.0,43.0,38,0.00,,,0.00,691.000000,,2013-03-18 21:22:00,
2013-03-18 14:32:00,41.0,17.0,-100.00,NW,307,26.0,43.0,38,0.00,,,0.00,691.000000,,2013-03-18 21:32:00,
2013-03-18 14:42:00,41.0,17.0,-100.00,NW,307,26.0,43.0,38,0.00,,,0.00,691.000000,,2013-03-18 21:42:00,
2013-03-18 15:13:00,41.0,19.0,-100.00,WNW,303,29.0,42.0,40,0.00,,,0.00,637.000000,,2013-03-18 22:13:00,
2013-03-18 15:22:00,41.0,19.0,-100.00,WNW,303,29.0,42.0,40,0.00,,,0.00,637.000000,,2013-03-18 22:22:00,
2013-03-18 15:32:00,41.0,19.0,-100.00,WNW,303,29.0,42.0,40,0.00,,,0.00,637.000000,,2013-03-18 22:32:00,
2013-03-18 15:42:00,41.0,19.0,-100.00,WNW,303,29.0,42.0,40,0.00,,,0.00,637.000000,,2013-03-18 22:42:00,
2013-03-18 16:12:00,43.0,19.0,-100.00,WNW,301,29.0,42.0,38,0.00,,,0.00,560.000000,,2013-03-18 23:12:00,
2013-03-18 16:22:00,43.0,19.0,-100.00,WNW,301,29.0,42.0,38,0.00,,,0.00,560.000000,,2013-03-18 23:22:00,
2013-03-18 16:32:00,43.0,19.0,-100.00,WNW,301,29.0,42.0,38,0.00,,,0.00,560.000000,,2013-03-18 23:32:00,
2013-03-18 16:42:00,43.0,19.0,-100.00,WNW,301,29.0,42.0,38,0.00,,,0.00,560.000000,,2013-03-18 23:42:00,
2013-03-18 17:12:00,40.0,16.0,-100.00,WNW,299,34.0,45.0,37,0.00,,,0.00,418.000000,,2013-03-19 00:12:00,
2013-03-18 17:22:00,40.0,16.0,-100.00,WNW,299,34.0,45.0,37,0.00,,,0.00,418.000000,,2013-03-19 00:22:00,
2013-03-18 17:32:00,40.0,16.0,-100.00,WNW,299,34.0,45.0,37,0.00,,,0.00,418.000000,,2013-03-19 00:32:00,
2013-03-18 17:42:00,40.0,16.0,-100.00,WNW,299,34.0,45.0,37,0.00,,,0.00,418.000000,,2013-03-19 00:42:00,
2013-03-18 18:12:00,40.0,16.0,-100.00,WNW,298,32.0,45.0,37,0.00,,,0.00,243.000000,,2013-03-19 01:12:00,
2013-03-18 18:22:00,40.0,16.0,-100.00,WNW,298,32.0,45.0,37,0.00,,,0.00,243.000000,,2013-03-19 01:22:00,
2013-03-18 18:32:00,40.0,16.0,-100.00,WNW,298,32.0,45.0,37,0.00,,,0.00,243.000000,,2013-03-19 01:32:00,
2013-03-18 18:42:00,40.0,16.0,-100.00,WNW,298,32.0,45.0,37,0.00,,,0.00,243.000000,,2013-03-19 01:42:00,
2013-03-18 19:12:00,38.0,16.0,-100.00,WNW,290,31.0,40.0,40,0.00,,,0.00,35.000000,,2013-03-19 02:12:00,
2013-03-18 19:22:00,38.0,16.0,-100.00,WNW,290,31.0,40.0,40,0.00,,,0.00,35.000000,,2013-03-19 02:22:00,
2013-03-18 19:32:00,38.0,16.0,-100.00,WNW,290,31.0,40.0,40,0.00,,,0.00,35.000000,,2013-03-19 02:32:00,
2013-03-18 19:42:00,38.0,16.0,-100.00,WNW,290,31.0,40.0,40,0.00,,,0.00,35.000000,,2013-03-19 02:42:00,
2013-03-18 20:12:00,34.0,15.0,-100.00,NW,304,23.0,39.0,46,0.00,,,0.00,0.000000,,2013-03-19 03:12:00,
2013-03-18 20:22:00,34.0,15.0,-100.00,NW,304,23.0,39.0,46,0.00,,,0.00,0.000000,,2013-03-19 03:22:00,
2013-03-18 20:32:00,34.0,15.0,-100.00,NW,304,23.0,39.0,46,0.00,,,0.00,0.000000,,2013-03-19 03:32:00,
2013-03-18 20:42:00,34.0,15.0,-100.00,NW,304,23.0,39.0,46,0.00,,,0.00,0.000000,,2013-03-19 03:42:00,
2013-03-18 21:13:00,33.0,12.0,-100.00,NE,35,5.0,30.0,42,0.00,,,0.00,0.000000,,2013-03-19 04:13:00,
2013-03-18 21:23:00,33.0,12.0,-100.00,NE,35,5.0,30.0,42,0.00,,,0.00,0.000000,,2013-03-19 04:23:00,
2013-03-18 21:33:00,33.0,12.0,-100.00,NE,35,5.0,30.0,42,0.00,,,0.00,0.000000,,2013-03-19 04:33:00,
2013-03-18 21:42:00,33.0,12.0,-100.00,NE,35,5.0,30.0,42,0.00,,,0.00,0.000000,,2013-03-19 04:42:00,
2013-03-18 22:12:00,32.0,16.0,-100.00,NW,319,8.0,17.0,52,0.00,,,0.00,0.000000,,2013-03-19 05:12:00,
2013-03-18 22:22:00,32.0,16.0,-100.00,NW,319,8.0,17.0,52,0.00,,,0.00,0.000000,,2013-03-19 05:22:00,
2013-03-18 22:32:00,32.0,16.0,-100.00,NW,319,8.0,17.0,52,0.00,,,0.00,0.000000,,2013-03-19 05:32:00,
2013-03-18 22:42:00,32.0,16.0,-100.00,NW,319,8.0,17.0,52,0.00,,,0.00,0.000000,,2013-03-19 05:42:00,
2013-03-18 23:12:00,30.0,17.0,-100.00,WNW,287,9.0,12.0,59,0.00,,,0.00,0.000000,,2013-03-19 06:12:00,
2013-03-18 23:22:00,30.0,17.0,-100.00,WNW,287,9.0,12.0,59,0.00,,,0.00,0.000000,,2013-03-19 06:22:00,
2013-03-18 23:32:00,30.0,17.0,-100.00,WNW,287,9.0,12.0,59,0.00,,,0.00,0.000000,,2013-03-19 06:32:00,
2013-03-18 23:42:00,30.0,17.0,-100.00,WNW,287,9.0,12.0,59,0.00,,,0.00,0.000000,,2013-03-19 06:42:00,